Clarksville, TN

12:58 PM CST on January 21, 2018 (GMT -0600)
Outlaw

Weather History for KCKV - May, 2014

Change the Weather History Date:

Thursday, May 15, 2014

  Actual Average Record
Temperature  
Mean Temperature 55 °F 66 °F  
Max Temperature 62 °F 77 °F 90 °F (1951)
Min Temperature 47 °F 55 °F 38 °F (1973)
Degree Days  
Heating Degree Days 10    
Month to date heating degree days 40  
Since 1 July heating degree days 4368  
Cooling Degree Days 0    
Month to date cooling degree days 76  
Year to date cooling degree days  
Growing Degree Days 4 (Base 50)    
Moisture  
Dew Point 46 °F    
Average Humidity 71    
Maximum Humidity 93    
Minimum Humidity 49    
Precipitation  
Precipitation T in 0.19 in 2.50 in (1967)
Month to date precipitation 1.06 3.30  
Year to date precipitation 19.32  
Sea Level Pressure  
Sea Level Pressure 30.03 in    
Wind  
Wind Speed 8 mph (WNW)    
Max Wind Speed 25 mph    
Max Gust Speed 33 mph    
Visibility 9 miles    
Events Rain    
T = Trace of Precipitation, MM = Missing Value Source: NWS Daily Summary

Daily Weather History Graph

Daily Weather History Graph

Search for Another Location

Airport or City:

Trip Planner

Search our weather history database for the weather conditions in past years. The results will help you decide how hot, cold, wet, or windy it might be!

Date:

Astronomy

May. 15, 2014 Rise Set
Actual Time 5:42 AM CDT 7:49 PM CDT
Civil Twilight 5:13 AM CDT 8:18 PM CDT
Nautical Twilight 4:38 AM CDT 8:54 PM CDT
Astronomical Twilight 4:00 AM CDT 9:32 PM CDT
Moon 8:57 PM CDT (5/15) 6:28 AM CDT (5/15)
Length of Visible Light 15h 05m
Length of Day
14h 07m
Full, 99% of the Moon is Illuminated
May 15
Full
May 21
Last Quarter
May 28
New
Jun 5
First Quarter
Jun 12
Full

Hourly Weather History & Observations

Time (CDT) Temp. Dew Point Humidity Pressure Visibility Wind Dir Wind Speed Gust Speed Precip Events Conditions
12:14 AM 53.1 °F 50.0 °F 89% 29.94 in 10.0 mi NW 12.7 mph - 0.00 in   Overcast
12:25 AM 53.1 °F 50.0 °F 89% 29.95 in 10.0 mi NW 10.4 mph - 0.00 in   Overcast
12:49 AM 53.6 °F 50.0 °F 88% 29.95 in 10.0 mi NW 8.1 mph - 0.00 in   Overcast
12:52 AM 53.1 °F 50.0 °F 89% 29.95 in 10.0 mi NW 8.1 mph - 0.00 in   Overcast
1:15 AM 52.0 °F 48.9 °F 89% 29.95 in 8.0 mi NW 15.0 mph 23.0 mph 0.00 in Rain Light Rain
1:35 AM 51.1 °F 48.0 °F 89% 29.95 in 10.0 mi NW 12.7 mph - 0.00 in   Overcast
1:48 AM 51.8 °F 48.2 °F 88% 29.95 in 10.0 mi NW 11.5 mph - 0.00 in   Overcast
1:52 AM 51.1 °F 48.0 °F 89% 29.94 in 10.0 mi NW 12.7 mph - 0.00 in   Overcast
2:30 AM 50.0 °F 46.9 °F 89% 29.96 in 10.0 mi NW 12.7 mph - 0.00 in   Overcast
2:52 AM 50.0 °F 46.9 °F 89% 29.95 in 10.0 mi WNW 10.4 mph - 0.00 in   Overcast
2:59 AM 50.0 °F 46.9 °F 89% 29.96 in 10.0 mi WNW 11.5 mph - N/A   Overcast
3:09 AM 50.0 °F 46.0 °F 86% 29.96 in 10.0 mi NW 13.8 mph 18.4 mph N/A   Overcast
3:30 AM 50.0 °F 46.0 °F 86% 29.97 in 10.0 mi NW 10.4 mph - N/A   Overcast
3:52 AM 50.0 °F 46.0 °F 86% 29.97 in 10.0 mi WNW 9.2 mph - N/A   Overcast
4:52 AM 50.0 °F 45.0 °F 83% 29.98 in 10.0 mi WNW 9.2 mph - N/A   Overcast
5:16 AM 48.9 °F 46.0 °F 90% 29.99 in 10.0 mi WNW 5.8 mph - N/A   Overcast
5:35 AM 50.0 °F 46.0 °F 86% 30.00 in 10.0 mi NW 8.1 mph - N/A   Overcast
5:52 AM 50.0 °F 46.0 °F 86% 30.01 in 10.0 mi WNW 8.1 mph - N/A   Overcast
6:39 AM 50.0 °F 45.0 °F 83% 30.03 in 6.0 mi NW 6.9 mph - 0.00 in Rain Light Rain
6:52 AM 48.9 °F 46.0 °F 90% 30.04 in 8.0 mi NW 9.2 mph - 0.00 in Rain Light Rain
7:04 AM 48.9 °F 46.0 °F 90% 30.04 in 10.0 mi WNW 4.6 mph - 0.00 in   Overcast
7:49 AM 50.0 °F 46.4 °F 87% 30.05 in 10.0 mi West 8.1 mph - 0.00 in   Overcast
7:52 AM 50.0 °F 46.9 °F 89% 30.05 in 10.0 mi West 9.2 mph - 0.00 in   Overcast
8:00 AM 50.0 °F 46.9 °F 89% 30.05 in 8.0 mi West 8.1 mph - 0.00 in Rain Light Rain
8:47 AM 48.2 °F 46.4 °F 93% 30.07 in 2.5 mi NW 11.5 mph - 0.02 in Rain Light Rain
8:52 AM 48.9 °F 46.9 °F 93% 30.07 in 2.0 mi NW 13.8 mph - 0.02 in Rain Rain
8:57 AM 48.9 °F 46.0 °F 90% 30.07 in 3.0 mi NW 11.5 mph - 0.00 in Rain Light Rain
9:05 AM 50.0 °F 46.9 °F 89% 30.08 in 10.0 mi NW 10.4 mph - 0.00 in Rain Light Rain
9:21 AM 51.1 °F 46.0 °F 83% 30.08 in 10.0 mi WNW 11.5 mph 21.9 mph 0.00 in   Overcast
9:36 AM 51.1 °F 46.9 °F 86% 30.09 in 10.0 mi WNW 11.5 mph - 0.00 in   Overcast
10:52 AM 52.0 °F 45.0 °F 77% 30.11 in 10.0 mi NW 15.0 mph - N/A   Overcast
11:39 AM 54.0 °F 45.0 °F 72% 30.11 in 10.0 mi WNW 12.7 mph 19.6 mph N/A   Overcast
11:52 AM 55.0 °F 45.0 °F 69% 30.12 in 10.0 mi NW 10.4 mph - N/A   Mostly Cloudy
12:21 PM 57.0 °F 45.0 °F 64% 30.11 in 10.0 mi NNW 15.0 mph 19.6 mph N/A   Scattered Clouds
12:52 PM 57.0 °F 44.1 °F 62% 30.11 in 10.0 mi NNW 15.0 mph - N/A   Overcast
2:52 PM 59.0 °F 44.1 °F 58% 30.09 in 10.0 mi NNW 8.1 mph - N/A   Overcast
3:52 PM 61.0 °F 45.0 °F 56% 30.08 in 10.0 mi West 8.1 mph - N/A   Scattered Clouds
4:52 PM 61.0 °F 43.0 °F 52% 30.06 in 10.0 mi North 6.9 mph - N/A   Mostly Cloudy
5:52 PM 61.0 °F 41.0 °F 48% 30.04 in 10.0 mi Variable 5.8 mph - N/A   Partly Cloudy
6:52 PM 59.0 °F 46.0 °F 62% 30.06 in 10.0 mi SSW 4.6 mph - N/A   Overcast
7:52 PM 57.0 °F 46.9 °F 69% 30.08 in 10.0 mi South 3.5 mph - N/A   Overcast
8:52 PM 54.0 °F 46.0 °F 75% 30.08 in 10.0 mi South 4.6 mph - N/A   Partly Cloudy
9:20 PM 52.0 °F 46.9 °F 83% 30.11 in 10.0 mi West 12.7 mph - 0.00 in Rain Light Rain
9:52 PM 51.1 °F 46.9 °F 86% 30.09 in 10.0 mi Calm Calm - 0.00 in   Overcast
11:52 PM 48.0 °F 45.0 °F 89% 30.08 in 10.0 mi SW 4.6 mph - N/A   Partly Cloudy